FW4335 Weather Reports


Display with metric or nautical units.
time (UTC)temp
F
wind
direction
speed
MPH
gust
MPH
rain 1hr
in
rain 24hr
in
rain mn
in
humidity
%
barometer
mb
20260903160055 50 252 0.0 1.0 0.00 0.31 0.00 100 1014.6
20260903154535 50 236 0.0 3.0 0.00 0.31 0.00 100 1014.5
20260903153127 49 189 0.0 0.0 0.00 0.31 0.00 100 1014.6
20260903151542 49 147 0.0 3.0 0.00 0.31 0.00 100 1014.6
20260903150043 49 210 0.0 3.0 0.00 0.31 0.00 100 1014.5
20260903143042 47 119 0.0 1.0 0.00 0.31 0.00 99 1014.3
20260903140041 46 202 0.0 0.0 0.00 0.31 0.00 99 1014.0
20260903134541 46 202 0.0 0.0 0.00 0.31 0.00 99 1013.9
20260903133117 46 203 0.0 2.0 0.00 0.31 0.00 99 1013.9
20260903131535 46 225 0.0 0.0 0.00 0.31 0.00 99 1013.7
20260903130035 45 225 0.0 0.0 0.00 0.31 0.00 99 1013.6
20260903124640 46 225 0.0 1.0 0.00 0.31 0.00 99 1013.6
20260903121534 46 157 0.0 0.0 0.00 0.31 0.00 99 1013.7
20260903120109 47 157 0.0 0.0 0.00 0.31 0.00 99 1013.8
20260903114533 47 157 0.0 0.0 0.00 0.31 0.00 99 1013.8
20260903113035 47 160 0.0 1.0 0.00 0.31 0.00 99 1013.7
20260903111535 47 202 0.0 0.0 0.00 0.31 0.00 99 1013.6
20260903104610 48 202 0.0 2.0 0.00 0.31 0.00 99 1013.4
20260903103032 49 202 0.0 0.0 0.00 0.31 0.00 99 1013.3
20260903101530 50 202 0.0 0.0 0.00 0.31 0.00 99 1013.2
20260903093036 50 202 0.0 0.0 0.00 0.31 0.00 99 1013.2
20260903091610 50 202 0.0 0.0 0.00 0.31 0.00 99 1013.3
20260903090033 50 202 0.0 0.0 0.00 0.31 0.00 99 1013.2
20260903084529 50 202 0.0 0.0 0.00 0.31 0.00 99 1013.3
20260903083109 50 188 0.0 0.0 0.00 0.31 0.00 99 1013.2
20260903081532 50 157 0.0 0.0 0.00 0.31 0.00 99 1013.0
20260903080034 50 161 0.0 1.0 0.00 0.31 0.00 98 1013.0
20260903074534 49 221 0.0 2.0 0.00 0.31 0.00 98 1012.9
20260903073109 50 213 0.0 2.0 0.00 0.31 0.00 98 1012.7
20260903071532 51 202 0.0 2.0 0.00 0.31 0.00 98 1012.6
20260903070034 51 174 0.0 2.0 0.00 0.31 0.00 98 1012.7
20260903063033 51 122 0.0 1.0 0.00 0.31 0.31 98 1012.7
20260903061532 51 135 0.0 0.0 0.00 0.31 0.31 98 1012.8
20260903060035 51 156 0.0 3.0 0.00 0.31 0.31 98 1012.7
20260903054531 51 230 0.0 2.0 0.00 0.31 0.31 98 1012.7
20260903051533 53 226 0.0 2.0 0.00 0.31 0.31 97 1012.5
20260903050036 53 118 0.0 3.0 0.00 0.31 0.31 97 1012.4
20260903043034 54 88 0.0 2.0 0.00 0.31 0.31 97 1012.2
20260903041536 55 178 0.0 0.0 0.00 0.31 0.31 97 1011.8
20260903034642 56 227 0.0 0.0 0.01 0.31 0.31 96 1011.4
20260903024532 57 157 0.0 0.0 0.13 0.30 0.28 95 1011.1
20260903023035 58 157 0.0 2.0 0.11 0.28 0.24 95 1011.0
20260903021534 58 29 0.0 1.0 0.07 0.24 0.21 95 1011.0
20260903020035 58 22 0.0 0.0 0.04 0.21 0.17 95 1010.7
20260903013035 58 22 0.0 0.0 0.03 0.17 0.17 95 1010.5
20260903011532 58 22 0.0 0.0 0.04 0.17 0.17 94 1010.5
20260903010037 58 22 0.0 0.0 0.05 0.17 0.15 94 1010.6
20260903004537 59 22 0.0 0.0 0.04 0.15 0.14 94 1010.7
20260903003037 59 22 0.0 0.0 0.03 0.14 0.13 93 1010.7
20260903001610 59 22 0.0 1.0 0.03 0.13 0.12 93 1010.6
20260903000036 59 22 0.0 1.0 0.03 0.12 0.11 92 1010.6
20260902234536 60 22 0.0 1.0 0.02 0.11 0.11 92 1010.5
20260902233033 61 4 0.0 1.0 0.02 0.11 0.10 92 1010.7
20260902224534 59 360 0.0 2.0 0.01 0.09 0.09 92 1010.7
20260902223153 60 256 0.0 2.0 0.02 0.09 0.09 92 1010.8
20260902221533 60 247 0.0 0.0 0.03 0.09 0.08 91 1010.7
20260902220034 60 275 0.0 1.0 0.03 0.08 0.08 91 1010.5
20260902214608 61 347 0.0 0.0 0.04 0.08 0.07 91 1010.4
20260902213036 60 360 0.0 0.0 0.03 0.07 0.06 90 1010.4
20260902210035 60 104 0.0 2.0 0.03 0.05 0.04 89 1010.5
20260902204534 60 64 0.0 3.0 0.02 0.04 0.04 88 1010.5
20260902203032 61 26 0.0 2.0 0.03 0.04 0.02 87 1010.7
20260902201535 61 24 0.0 3.0 0.01 0.02 0.02 86 1010.6
20260902200035 62 340 0.0 0.0 0.02 0.02 0.02 84 1010.6
20260902194535 63 258 0.0 0.0 0.02 0.02 0.01 84 1010.5
20260902193037 64 247 0.0 0.0 0.01 0.01 0.01 77 1010.5
20260902191536 65 241 0.0 2.0 0.01 0.01 0.00 72 1010.5
20260902190035 65 225 0.0 2.0 0.00 0.00 0.00 71 1010.3
20260902183108 66 247 0.0 1.0 0.00 0.00 0.00 68 1010.2
20260902181535 65 309 0.0 0.0 0.00 0.00 0.00 70 1010.2
20260902180145 66 357 0.0 2.0 0.00 0.00 0.00 69 1010.3
20260902174545 66 350 0.0 2.0 0.00 0.00 0.00 68 1010.3
20260902174536 66 358 0.0 3.0 0.00 0.00 0.00 69 1010.4
20260902170036 67 280 0.0 1.0 0.00 0.00 0.00 71 1010.7
20260902164609 63 172 0.0 1.0 0.00 0.00 0.00 73 1011.0
20260902163109 63 103 0.0 2.0 0.00 0.00 0.00 73 1011.2